Simultaneous Nadir Overpasses (SNOs) Predictions

Prediction of SNOs between NOAA-19 and TERRA Satellite Orbit:

Table of predicted SNOs for the next 14.0 days since TLE Epoch: 2/23/2014
Index Date (NOAA-19) Time (NOAA-19) Lat,Lon (NOAA-19) SZA (NOAA-19 ) Date (TERRA) Time (TERRA) Lat,Lon (TERRA) SZA (TERRA ) Distance(km) Time Diff (sec)
1 02/24/2014 07:08:28 71.04, 72.46 80.44 02/24/2014 07:09:35 70.96, 74.63 80.32 78.96 67
2 02/24/2014 07:59:12 -70.21,-118.90 100.44 02/24/2014 07:59:17 -70.19,-118.89 100.46 1.86 5
3 02/24/2014 08:50:03 69.53, 49.38 78.86 02/24/2014 08:48:53 69.59, 47.92 78.95 57.11 70
4 02/26/2014 12:43:14 -70.22, 170.09 101.24 02/26/2014 12:43:34 -70.23, 170.09 101.24 0.55 20
5 02/26/2014 13:34:14 70.06, -22.41 78.58 02/26/2014 13:33:02 70.07, -22.49 78.60 3.70 72
6 02/28/2014 17:27:16 -70.26, 99.05 102.04 02/28/2014 17:27:51 -70.24, 99.04 102.05 1.50 35
7 02/28/2014 18:18:16 70.12, -93.49 77.81 02/28/2014 18:17:18 70.14, -93.47 77.83 2.26 58
8 03/02/2014 22:11:18 -70.30, 28.00 102.83 03/02/2014 22:12:07 -70.28, 28.03 102.85 1.72 49
9 03/02/2014 23:02:17 70.14,-164.51 77.00 03/02/2014 23:01:35 70.12,-164.56 76.98 3.26 42
10 03/05/2014 02:55:19 -70.30, -42.98 103.68 03/05/2014 02:56:23 -70.30, -43.02 103.69 1.67 64
11 03/05/2014 03:46:17 70.18, 124.46 76.19 03/05/2014 03:45:49 70.18, 124.46 76.19 0.99 28
12 03/07/2014 07:39:23 -70.52,-114.32 104.31 03/07/2014 07:40:35 -70.44,-113.87 104.39 18.40 72
13 03/07/2014 08:30:18 70.22, 53.41 75.38 03/07/2014 08:30:04 70.22, 53.45 75.38 1.30 14




NCC Satellite Simultaneous Nadir Overpasses (SNOs) Prediction Service
